This is the latest recevied weather packets stored in our database for station/object K3BAK-13. If no packets are shown the sender has not sent any weather packets the latest 10 day(s).
| Time | Temp. | Humidity | Pressure | Rain* | Wind** | Luminosity | Snow |
|---|---|---|---|---|---|---|---|
| 1777701669 | 2.22° C | 94% | 1016.7 hPa | 0 mm | - | - | - |
| 1777701059 | 2.22° C | 95% | 1016.7 hPa | 0 mm | - | - | - |
| 1777700461 | 2.22° C | 94% | 1016.8 hPa | 0 mm | - | - | - |
| 1777698960 | 2.22° C | 95% | 1017.1 hPa | 0 mm | - | - | - |
| 1777698358 | 1.67° C | 94% | 1016.8 hPa | 0 mm | - | - | - |
| 1777695657 | 2.22° C | 93% | 1016.8 hPa | 0 mm | - | - | - |
| 1777694161 | 2.78° C | 92% | 1016.6 hPa | 0 mm | - | - | - |
| 1777692957 | 3.33° C | 92% | 1016.5 hPa | 0 mm | - | - | - |
| 1777691759 | 3.33° C | 92% | 1016.2 hPa | 0 mm | - | - | - |
| 1777685462 | 4.44° C | 90% | 1015.3 hPa | 0 mm | - | - | - |
| 1777683660 | 5.56° C | 90% | 1015.1 hPa | 0 mm | - | - | - |
| 1777683361 | 5.56° C | 91% | 1014.9 hPa | 0 mm | - | - | - |
| 1777682761 | 6.11° C | 92% | 1014.5 hPa | 0 mm | - | - | - |
| 1777680959 | 6.11° C | 92% | 1013.7 hPa | 0 mm | - | - | - |
| 1777680361 | 6.11° C | 91% | 1013.3 hPa | 0.51 mm | - | - | - |
| 1777680059 | 6.67° C | 91% | 1013.1 hPa | 1.27 mm | - | - | - |
| 1777678562 | 6.67° C | 90% | 1013.1 hPa | 1.27 mm | - | - | - |
| 1777677363 | 6.67° C | 87% | 1012.4 hPa | 1.27 mm | - | - | - |
| 1777676463 | 9.44° C | 83% | 1012.3 hPa | 0 mm | - | - | - |
| 1777675862 | 9.44° C | 83% | 1012 hPa | 0 mm | - | - | - |
| 1777675261 | 9.44° C | 84% | 1012 hPa | 0 mm | - | - | - |
| 1777672260 | 8.89° C | 87% | 1012.1 hPa | 0.51 mm | - | - | - |
| 1777671068 | 8.89° C | 87% | 1012.1 hPa | 0.51 mm | - | - | - |
| 1777670459 | 8.33° C | 88% | 1012.4 hPa | 0.51 mm | - | - | - |
| 1777669559 | 8.33° C | 88% | 1012.5 hPa | 0.51 mm | - | - | - |
* Rain latest hour (hover to see other rain measurements)
** Current wind speed in m/s (hover to see current wind gust speed)